AirNav   Bose ProFlight Series 2 Headset
 
 875 users online  

I19 Greene County-Lewis A Jackson Regional Airport
Dayton, Ohio, USA

GOING TO DAYTON?


FAA INFORMATION EFFECTIVE 02 JANUARY 2020

Location

FAA Identifier: I19
Lat/Long: 39-41-26.6000N 083-59-34.0000W
39-41.443333N 083-59.566667W
39.6907222,-83.9927778
(estimated)
Elevation: 948.5 ft. / 289.1 m (surveyed)
Variation: 05W (1995)
From city: 10 miles E of DAYTON, OH
Time zone: UTC -5 (UTC -4 during Daylight Saving Time)
Zip code: 45385

Airport Operations

Airport use: Open to the public
Activation date: 10/1968
Control tower: no
ARTCC: INDIANAPOLIS CENTER
FSS: DAYTON FLIGHT SERVICE STATION
NOTAMs facility: DAY (NOTAM-D service available)
Attendance: NOV MAR 0800-1800, APR-OCT 0800-2000
UNATNDD CHRISTMAS, NEW YEARS & THANKSGIVING DAYS.
Wind indicator: lighted
Segmented circle: no
Lights: ACTVT LIRL RY 07/25 & REIL RYS 07 & 25 - CTAF.
Beacon: white-green (lighted land airport)
Operates sunset to sunrise.

Airport Communications

CTAF/UNICOM: 122.7
WX AWOS-3: 118.525 (937-372-4668)
COLUMBUS APPROACH: 118.85
COLUMBUS DEPARTURE: 118.85
CLASS C: 118.85
IC: 118.85
WX AWOS-3PT at SGH (11 nm NE): 134.975
WX ASOS at MGY (12 nm SW): 118.375 (937-885-2171)
WX AWOS-3 at I66 (13 nm SE): 124.175 (937-382-1376)
WX ASOS at DAY (16 nm NW): PHONE 937-415-6819
WX AWOS-3 at I68 (18 nm SW): 120.55 (513-934-5500)
WX ASOS at ILN (18 nm SE): PHONE 937-383-7334

Nearby radio navigation aids

VOR radial/distance  VOR name  Freq  Var
SGHr222/11.1SPRINGFIELD VOR/DME113.2004W
MXQr335/18.0MIDWEST VOR/DME112.9004W
DQNr137/27.0DAYTON VOR/DME114.5001W
RODr181/35.9ROSEWOOD VORTAC117.5005W

 
NDB name  Hdg/Dist  Freq  Var  ID
CLARK COUNTY226/14.734104WCCJ -.-. -.-. .---
HOOK FIELD065/24.023904WHKF .... -.- ..-.
COURT HOUSE287/28.341406WCSS -.-. ... ...
CINCINNATI031/35.733504WLUK .-.. ..- -.-
SPORTYS020/38.324504WPWF .--. .-- ..-.

Airport Services

Fuel available: 100LL JET-A+
FUEL AVBL 24 HRS WITH CREDIT CARD CTC FBO - (937) 347-1302.
Parking: hangars and tiedowns
Airframe service: MAJOR
Powerplant service: MAJOR
Bulk oxygen: HIGH

Runway Information

Runway 7/25

Dimensions: 5004 x 75 ft. / 1525 x 23 m
Surface: asphalt, in excellent condition
Weight bearing capacity: 
Single wheel: 30.0
Runway edge lights: low intensity
Gradient: EAST
RUNWAY 7  RUNWAY 25
Latitude: 39-41.256342N39-41.629478N
Longitude: 084-00.042808W083-59.091673W
Elevation: 909.5 ft.948.5 ft.
Traffic pattern: leftleft
Runway heading: 068 magnetic, 063 true248 magnetic, 243 true
Markings: nonprecision, in good conditionnonprecision, in good condition
Visual slope indicator: 2-light PAPI on left (3.50 degrees glide path)2-light PAPI on left (3.50 degrees glide path)
RWY 25 PAPI UNUSBL BYD 6 DEGS L OF CNTRLN.
Runway end identifier lights: yesyes
Touchdown point: yes, no lightsyes, no lights
Obstructions: 16 ft. trees, 565 ft. from runway, 100 ft. right of centerline, 22:1 slope to clearnone
+10' TREES AND BRUSH, 0'-199' FM RY END, 195'-250' R OF CNTRLN.

Airport Ownership and Management from official FAA records

Ownership: Publicly-owned
Owner: GREENE COUNTY REGNL ARPT AUTH
140 N VALLEY RD,
XENIA, OH 45385
Phone 937-376-8107
Manager: DAVE KUSHNER
140 N VALLEY RD,
XENIA, OH 45385
Phone 937-376-8107

Airport Operational Statistics

Aircraft based on the field: 72
Single engine airplanes: 63
Multi engine airplanes: 8
Helicopters: 1
    
Aircraft operations: avg 117/day *
91% local general aviation
9% transient general aviation
* for 12-month period ending 22 September 2018

Additional Remarks

BIRDS & DEER ON & INVOF ARPT.
COLUMBUS APCH CTL TEL# 614-338-8537.
EXTENSIVE FLIGHT TRAINING ACT.

Instrument Procedures

NOTE: All procedures below are presented as PDF files. If you need a reader for these files, you should download the free Adobe Reader.

NOT FOR NAVIGATION. Please procure official charts for flight.
FAA instrument procedures published for use from 02 January 2020 at 0901Z to 30 January 2020 at 0900Z.

 
IAPs - Instrument Approach Procedures
RNAV (GPS) RWY 07   download (242KB)
RNAV (GPS) RWY 25   download (246KB)
NOTE: Special Take-Off Minimums/Departure Procedures apply   download (232KB)

Other nearby airports with instrument procedures:

KFFO - Wright-Patterson Air Force Base (8 nm N)
KSGH - Springfield-Beckley Municipal Airport (11 nm NE)
KMGY - Dayton-Wright Brothers Airport (12 nm SW)
I66 - Clinton Field Airport (13 nm SE)
KDAY - James M Cox Dayton International Airport (16 nm NW)
I68 - Warren County Airport/John Lane Field (18 nm SW)
KILN - Wilmington Air Park (18 nm SE)
 
Loc | Ops | Rwys | IFR | FBO | Links
Com | Nav | Svcs | Stats | Notes
Area around I19 (Greene County-Lewis A Jackson Regional Airport)
 
Road maps at: MapQuest Bing Google
 
Aerial photo
WARNING: Photo may not be current or correct
Aerial photo of I19 (Greene County-Lewis A Jackson Regional Airport)
Photo by Anthony Springer
Photo taken 13-Jun-2018
looking northeast.

Do you have a better or more recent aerial photo of Greene County-Lewis A Jackson Regional Airport that you would like to share? If so, please send us your photo.

 
Sectional chart

 
Airport distance calculator
Flying to Greene County-Lewis A Jackson Regional Airport? Find the distance to fly.

From to I19

Sunrise and sunset
Times for 28-Jan-2020
 Local
(UTC-5)
 Zulu
(UTC)
Morning civil twilight07:2012:20
Sunrise07:4812:48
Sunset17:5022:50
Evening civil twilight18:1823:18

Current date and time
Zulu (UTC)  28-Jan-2020 07:58:47
Local (UTC-5)  28-Jan-2020 02:58:47
 
METAR
KFFO 
8nm N 
280656Z 29004KT 6SM BR OVC010 01/M02 A3001 RMK AO2A SLP173 T00061018
KSGH 
11nm NE 
280713Z AUTO 29006KT 4SM BR OVC005 00/00 A3001 RMK AO2 PNO $
KMGY 
12nm SW 
280753Z AUTO 30004KT 5SM BR SCT008 OVC021 01/M02 A3003 RMK AO2 SLP176 T00061017
KDAY 
16nm NW 
280656Z 29005KT 5SM BR OVC006 01/M02 A3002 RMK AO2 SLP174 T00061017
KILN 
18nm SE 
280754Z AUTO 30007KT 7SM BKN016 OVC025 00/M02 A3002 RMK AO2 SLP190 T00001017
KI68 
18nm SW 
280755Z AUTO 27005KT 5SM BR OVC023 00/00 A3004 RMK AO1 T00020002
TAF
KFFO 
8nm N 
280210Z 2802/2901 30006KT 9999 OVC010 620105 QNH3001INS BECMG 2812/2814 30006KT 9999 BKN010 OVC020 620105 QNH3004INS TX01/2802Z TNM01/2810Z
KDAY 
16nm NW 
280527Z 2806/2906 30006KT 5SM BR SCT008 OVC012 FM281500 30006KT P6SM OVC015 FM282000 30006KT P6SM OVC022 FM290200 31003KT P6SM OVC018
KILN 
18nm SE 
280527Z 2806/2906 31006KT 5SM BR SCT008 OVC012 FM281500 28006KT P6SM OVC015 FM281900 29006KT P6SM OVC022 FM290200 31003KT P6SM OVC018
NOTAMs
Click for the latest NOTAMs
NOTAMs are issued by the DoD/FAA and will open in a separate window not controlled by AirNav.

 

 
 

FBO, Fuel Providers, and Aircraft Ground Support

  
 Business Name 
 
 Contact 
 
 Services / Description 
 
Fuel Prices
 
Comments
  
 MacAir Aviation
937-347-1302
[web site]
[email]
Aviation fuel, Aircraft ground handling, Aircraft parking (ramp or tiedown), Hangars, Hangar leasing / sales, Passenger terminal and lounge, ...
 
Certificated Pilot School   PSI FAA Test Center  
 
More info about MacAir Aviation
EPIC
100LL Jet A
AS $4.83 $3.49 
 Updated 14-Jan-2020
 
   7 read write
AS=Assisted/Self Service
Update Fuel Prices
 

Would you like to see your business listed on this page?

 If your business provides an interesting product or service to pilots, flight crews, aircraft, or users of the Greene County-Lewis A Jackson Regional Airport, you should consider listing it here.  To start the listing process, click on the button below
 
Add a business
 

Other Pages about Greene County-Lewis A Jackson Regional Airport

www.i19airport.com
 
Update a link
 
Copyright © AirNav, LLC. All rights reserved. Privacy Policy  Contact